This is the latest recevied weather packets stored in our database for station/object W0CHP-13. If no packets are shown the sender has not sent any weather packets the latest 10 day(s).
| Time | Temp. | Humidity | Pressure | Rain* | Wind** | Luminosity | Snow |
|---|---|---|---|---|---|---|---|
| 1777345816 | 11.67° C | 80% | 1000.6 hPa | 0 mm | - | 0 W/m² | - |
| 1777345219 | 12.22° C | 79% | 1000.2 hPa | 0 mm | - | 0 W/m² | - |
| 1777344617 | 12.78° C | 80% | 999.9 hPa | 0 mm | - | 0 W/m² | - |
| 1777344015 | 12.78° C | 80% | 999.6 hPa | 0 mm | - | 0 W/m² | - |
| 1777343418 | 12.78° C | 81% | 998.9 hPa | 0 mm | - | 0 W/m² | - |
| 1777342816 | 13.33° C | 81% | 998.3 hPa | 0 mm | - | 0 W/m² | - |
| 1777342218 | 13.33° C | 80% | 998.4 hPa | 0 mm | - | 0 W/m² | - |
| 1777341616 | 13.89° C | 80% | 998 hPa | 0 mm | - | 0 W/m² | - |
| 1777341019 | 14.44° C | 80% | 997.5 hPa | 0 mm | - | 0 W/m² | - |
| 1777340417 | 15° C | 79% | 997.5 hPa | 0 mm | - | 0 W/m² | - |
| 1777339815 | 15.56° C | 78% | 997.1 hPa | 0 mm | - | 0 W/m² | - |
| 1777339218 | 15.56° C | 78% | 997.1 hPa | 0 mm | - | 0 W/m² | - |
| 1777338616 | 16.11° C | 76% | 996.9 hPa | 0 mm | - | 0 W/m² | - |
| 1777338018 | 16.11° C | 76% | 997.1 hPa | 0 mm | - | 2 W/m² | - |
| 1777337416 | 16.67° C | 75% | 996.8 hPa | 0 mm | - | 4 W/m² | - |
| 1777336819 | 17.22° C | 77% | 996.4 hPa | 0 mm | - | 18 W/m² | - |
| 1777336217 | 17.22° C | 78% | 996.1 hPa | 0 mm | - | 16 W/m² | - |
| 1777335615 | 17.22° C | 79% | 995.6 hPa | 0 mm | - | 28 W/m² | - |
| 1777335017 | 17.22° C | 80% | 995.6 hPa | 2.03 mm | - | 31 W/m² | - |
| 1777334416 | 17.78° C | 80% | 995.6 hPa | 2.54 mm | - | 34 W/m² | - |
| 1777333818 | 17.78° C | 80% | 995.8 hPa | 2.54 mm | - | 59 W/m² | - |
| 1777333217 | 17.78° C | 80% | 995.4 hPa | 2.54 mm | - | 80 W/m² | - |
| 1777332618 | 17.78° C | 80% | 995.8 hPa | 2.54 mm | - | 57 W/m² | - |
| 1777332017 | 18.33° C | 81% | 995.8 hPa | 2.54 mm | - | 60 W/m² | - |
| 1777331415 | 18.89° C | 79% | 995.1 hPa | 0.51 mm | - | 4 W/m² | - |
* Rain latest hour (hover to see other rain measurements)
** Current wind speed in m/s (hover to see current wind gust speed)